Lincoln, RI

1:12 AM EDT on August 26, 2016 (GMT -0400)
North Central State

Weather History for KSFZ - February, 2013

Change the Weather History Date:

Friday, February 8, 2013

  Actual Average Record
Temperature  
Mean Temperature 26 °F -  
Max Temperature 32 °F 35 °F 51 °F (2009)
Min Temperature 17 °F 20 °F 8 °F (2000)
Degree Days  
Heating Degree Days 40    
Moisture  
Dew Point 23 °F    
Average Humidity 85    
Maximum Humidity 93    
Minimum Humidity 74    
Precipitation  
Precipitation 0.00 in - - ()
Sea Level Pressure  
Sea Level Pressure 29.63 in    
Wind  
Wind Speed 23 mph (NNE)    
Max Wind Speed 34 mph    
Max Gust Speed 51 mph    
Averages and records for this station are not official NWS values.
T = Trace of Precipitation, MM = Missing Value Source: NWS Daily Summary

Daily Weather History Graph

Daily Weather History Graph

Search for Another Location

Airport or City:

Trip Planner

Search our weather history database for the weather conditions in past years. The results will help you decide how hot, cold, wet, or windy it might be!

Date:

Astronomy

Feb. 08, 2013 Rise Set
Actual Time 6:50 AM EST 5:10 PM EST
Civil Twilight 6:21 AM EST 5:39 PM EST
Nautical Twilight 5:48 AM EST 6:12 PM EST
Astronomical Twilight 5:16 AM EST 6:44 PM EST
Moon 5:17 AM EST (2/8) 3:39 PM EST (2/8)
Length of Visible Light 11h 17m
Length of Day
10h 19m
Waning Crescent, 3% of the Moon is Illuminated
Feb 8
Waning Crescent
Feb 10
New
Feb 17
First Quarter
Feb 25
Full
Mar 4
Last Quarter

Hourly Weather History & Observations

Time (EST) Temp. Windchill Dew Point Humidity Pressure Visibility Wind Dir Wind Speed Gust Speed Precip Events Conditions
5:15 PM 32.0 °F 20.5 °F 28.4 °F 87% 29.80 in 0.5 mi NE 18.4 mph 26.5 mph N/A   Overcast
5:35 PM 30.2 °F 18.5 °F 28.4 °F 93% 29.79 in 0.5 mi NE 17.3 mph 31.1 mph N/A   Overcast
5:55 PM 30.2 °F 17.8 °F 26.6 °F 86% 29.78 in 0.5 mi NE 19.6 mph 28.8 mph N/A   Overcast
6:15 PM 30.2 °F 18.5 °F 28.4 °F 93% 29.76 in 0.5 mi NE 17.3 mph 35.7 mph N/A   Overcast
6:35 PM 30.2 °F 18.1 °F 26.6 °F 86% 29.74 in 0.2 mi NE 18.4 mph 26.5 mph N/A   Overcast
6:55 PM 30.2 °F 17.8 °F 26.6 °F 86% 29.71 in 0.5 mi NE 19.6 mph 33.4 mph N/A   Mostly Cloudy
7:15 PM 30.2 °F 17.4 °F 26.6 °F 86% 29.70 in 0.5 mi NE 20.7 mph 32.2 mph N/A   Unknown
7:35 PM 30.2 °F 15.4 °F 26.6 °F 86% 29.67 in 0.5 mi NE 28.8 mph 36.8 mph N/A   Unknown
7:55 PM 30.2 °F 15.9 °F 26.6 °F 86% 29.65 in 0.2 mi NE 26.5 mph 42.6 mph N/A   Mostly Cloudy
8:15 PM 30.2 °F 15.7 °F 26.6 °F 86% 29.64 in 0.2 mi NNE 27.6 mph 39.1 mph N/A   Overcast
8:35 PM 30.2 °F 14.7 °F 26.6 °F 86% 29.63 in 0.5 mi NE 32.2 mph 39.1 mph N/A   Overcast
8:55 PM 30.2 °F 15.4 °F 26.6 °F 86% 29.58 in 0.5 mi NNE 28.8 mph 44.9 mph N/A   Overcast
9:15 PM 30.2 °F 14.7 °F 26.6 °F 86% 29.56 in 0.5 mi NNE 32.2 mph 49.5 mph N/A   Overcast
9:35 PM 28.4 °F 11.8 °F 24.8 °F 86% 29.56 in 0.2 mi NNE 34.5 mph 50.6 mph N/A   Overcast
9:55 PM 23.0 °F 6.3 °F 15.8 °F 74% 29.54 in 0.2 mi North 26.5 mph 34.5 mph N/A   Overcast
10:15 PM 21.2 °F 3.5 °F 17.6 °F 86% 29.53 in 0.2 mi North 27.6 mph 36.8 mph N/A   Overcast
10:55 PM 19.4 °F 0.8 °F 15.8 °F 86% 29.49 in 0.2 mi North 28.8 mph 42.6 mph N/A   Overcast
11:15 PM 19.4 °F 1.1 °F 15.8 °F 86% 29.47 in 0.2 mi North 27.6 mph 38.0 mph N/A   Overcast
11:35 PM 19.4 °F -0.3 °F 12.2 °F 74% 29.48 in 0.2 mi North 33.4 mph 42.6 mph N/A   Mostly Cloudy
11:55 PM 17.6 °F -1.9 °F 12.2 °F 79% 29.47 in 0.5 mi North 29.9 mph 39.1 mph N/A   Unknown